User: anonymous   Login
Location: Unspecified
(0.0000°N, 0.0000°E)
Time: 00:50:41
(UTC+00:00)
Language:

NOAA 15 - Orbit

View from above orbital plane
View from above orbital plane
View from above satellite
View from above satellite

Ground track
Ground track

The orbit data is extracted from the following two-line orbital elements,

1 25338U 98030A   19144.57610560  .00000062  00000-0  44654-4 0  9995
2 25338  98.7484 165.8856 0009585 321.1494  38.8996 14.25909454 93663
Epoch (UTC): 24 May 2019 13:49:35
Eccentricity: 0.0009585
inclination: 98.7484°
perigee height: 798 km
apogee height: 812 km
right ascension of ascending node: 165.8856°
argument of perigee: 321.1494°
revolutions per day: 14.25909454
mean anomaly at epoch: 38.8996°
orbit number at epoch: 9366

The dashed part of the orbit path shows where the satellite is in the earth's shadow,  

DLR